496  
ASUS41 KRLX 181110  
RWRRLX  
REGIONAL WEATHER ROUNDUP  
NATIONAL WEATHER SERVICE CHARLESTON WV  
600 AM EST FRI JAN 18 2019  
 
NOTE: "FAIR" INDICATES FEW OR NO CLOUDS BELOW 12,000 FEET WITH NO  
SIGNIFICANT WEATHER AND/OR S TO VISIBILITY
.  
 
WVZ003-181200-  
NORTHERN PANHANDLE OF WEST VIRGINIA  
 
CITY SKY/WX TMP DP RH WIND PRES REMARKS
 
WHEELING FOG 34 33 96 W9 29.99R VSB 1  

 
 
WVZ009-181200-  
NORTHWEST WEST VIRGINIA  
 
CITY SKY/WX TMP DP RH WIND PRES REMARKS
 
PARKERSBURG CLOUDY 37 35 92 VRB7 30.06R  

 
 
WVZ006-181200-  
WESTERN WEST VIRGINIA  
 
CITY SKY/WX TMP DP RH WIND PRES REMARKS
 
HUNTINGTON CLOUDY 41 38 89 NW8 30.07R  

 
 
WVZ015-181200-  
WEST CENTRAL WEST VIRGINIA  
 
CITY SKY/WX TMP DP RH WIND PRES REMARKS
 
CHARLESTON LGT RAIN 41 40 96 W6 30.05R  

 
 
WVZ022-031-181200-  
NORTH CENTRAL WEST VIRGINIA  
 
CITY SKY/WX TMP DP RH WIND PRES REMARKS
 
MORGANTOWN CLOUDY 36 36 100 SW5 30.00S FOG  
CLARKSBURG LGT RAIN 39 36 89 SW6 30.00S FOG  
BUCKHANNON LGT RAIN 37 37 100 SW8 30.00R  

 
 
WVZ025-035-042-045-181200-  
SOUTHERN WEST VIRGINIA  
 
CITY SKY/WX TMP DP RH WIND PRES REMARKS
 
BECKLEY FOG 35 35 100 W6 30.01R VSB 1/2  
LOGAN CLOUDY 41 39 93 VRB5 30.04R  
PINEVILLE CLOUDY 37 36 98 MISG 30.09R FOG  
BLUEFIELD FOG 35 34 96 W7 30.01R VSB 1/4  
LEWISBURG CLOUDY 32 32 99 CALM 30.01R FOG  

 
 
WVZ047-181200-  
NORTHERN MOUNTAINS OF WEST VIRGINIA  
 
CITY SKY/WX TMP DP RH WIND PRES REMARKS
 
ELKINS CLOUDY 35 33 92 CALM 29.99R FOG  

 
 
WVZ052-181200-  
EASTERN PANHANDLE OF WEST VIRGINIA  
 
CITY SKY/WX TMP DP RH WIND PRES REMARKS
 
MARTINSBURG CLOUDY 31 31 100 CALM 30.03F FOG  
PETERSBURG CLOUDY 31 30 95 CALM 30.01S FOG  

 
 
SOUTHEAST OHIO/NORTHEAST KENTUCKY  
 
CITY SKY/WX TMP DP RH WIND PRES REMARKS
 
ATHENS CLOUDY 36 36 100 W3 30.06S  
ASHLAND LGT RAIN 39 37 92 NW3 30.09R  

 
 
 
CLICK HERE TO GO TO PREVIOUS BULLETINS.

The Nexlab WV Page
The Nexlab OH Page
The Nexlab KY Page
The Nexlab VA Page Main Text Page